| time (UTC) | temp F | wind direction | speed MPH | gust MPH | rain 1hr in | rain 24hr in | rain mn in | humidity % | barometer mb |
| 20260506045034 | 62 | 105 | 2.0 | 2.0 | 0.00 | 0.00 | 0.00 | 78 | 1017.7 |
| 20260506044532 | 62 | 317 | 1.0 | 3.0 | 0.00 | 0.00 | 0.00 | 78 | 1017.6 |
| 20260506044029 | 62 | 277 | 2.0 | 2.0 | 0.00 | 0.00 | 0.00 | 78 | 1017.6 |
| 20260506043526 | 62 | 85 | 2.0 | 3.0 | 0.00 | 0.00 | 0.00 | 78 | 1017.7 |
| 20260506043025 | 62 | 240 | 0.0 | 4.0 | 0.00 | 0.00 | 0.00 | 78 | 1017.8 |
| 20260506042523 | 62 | 275 | 2.0 | 3.0 | 0.00 | 0.00 | 0.00 | 78 | 1018.0 |
| 20260506042021 | 62 | 326 | 1.0 | 1.0 | 0.00 | 0.00 | 0.00 | 78 | 1017.9 |
| 20260506041519 | 63 | 94 | 0.0 | 1.0 | 0.00 | 0.00 | 0.00 | 77 | 1017.9 |
| 20260506041016 | 63 | 98 | 2.0 | 3.0 | 0.00 | 0.00 | 0.00 | 77 | 1018.0 |
| 20260506040514 | 63 | 135 | 2.0 | 2.0 | 0.00 | 0.00 | 0.00 | 77 | 1017.9 |
| 20260506040009 | 63 | 72 | 1.0 | 3.0 | 0.00 | 0.00 | 0.00 | 76 | 1017.9 |
| 20260506035506 | 63 | 242 | 2.0 | 3.0 | 0.00 | 0.00 | 0.00 | 76 | 1017.6 |
| 20260506035003 | 64 | 114 | 1.0 | 7.0 | 0.00 | 0.00 | 0.00 | 75 | 1017.9 |
| 20260506034501 | 64 | 300 | 0.0 | 7.0 | 0.00 | 0.00 | 0.00 | 75 | 1018.1 |
| 20260506033957 | 64 | 178 | 2.0 | 3.0 | 0.00 | 0.00 | 0.00 | 75 | 1018.1 |
| 20260506033455 | 64 | 99 | 1.0 | 3.0 | 0.00 | 0.00 | 0.00 | 75 | 1018.0 |
| 20260506032951 | 64 | 346 | 1.0 | 2.0 | 0.00 | 0.00 | 0.00 | 75 | 1018.1 |
| 20260506032449 | 64 | 278 | 1.0 | 2.0 | 0.00 | 0.00 | 0.00 | 74 | 1018.0 |
| 20260506031945 | 64 | 333 | 1.0 | 1.0 | 0.00 | 0.00 | 0.00 | 74 | 1018.2 |
| 20260506031443 | 64 | 271 | 0.0 | 2.0 | 0.00 | 0.00 | 0.00 | 74 | 1018.3 |
| 20260506030940 | 64 | 53 | 1.0 | 2.0 | 0.00 | 0.00 | 0.00 | 74 | 1018.1 |
| 20260506030438 | 64 | 132 | 1.0 | 1.0 | 0.00 | 0.00 | 0.00 | 74 | 1018.2 |
| 20260506025934 | 65 | 259 | 0.0 | 3.0 | 0.00 | 0.00 | 0.00 | 73 | 1018.3 |
| 20260506025431 | 65 | 24 | 0.0 | 1.0 | 0.00 | 0.00 | 0.00 | 73 | 1018.0 |
| 20260506024928 | 65 | 168 | 1.0 | 2.0 | 0.00 | 0.00 | 0.00 | 72 | 1018.2 |
| 20260506024425 | 65 | 73 | 1.0 | 2.0 | 0.00 | 0.00 | 0.00 | 72 | 1018.2 |
| 20260506023921 | 66 | 278 | 0.0 | 2.0 | 0.00 | 0.00 | 0.00 | 71 | 1018.0 |
| 20260506023418 | 66 | 110 | 1.0 | 2.0 | 0.00 | 0.00 | 0.00 | 71 | 1017.9 |
| 20260506022914 | 66 | 321 | 1.0 | 2.0 | 0.00 | 0.00 | 0.00 | 70 | 1017.9 |
| 20260506022412 | 66 | 336 | 1.0 | 3.0 | 0.00 | 0.00 | 0.00 | 70 | 1018.0 |
| 20260506021910 | 66 | 311 | 2.0 | 3.0 | 0.00 | 0.00 | 0.00 | 70 | 1018.0 |
| 20260506021407 | 66 | 305 | 1.0 | 6.0 | 0.00 | 0.00 | 0.00 | 69 | 1017.9 |
| 20260506020903 | 66 | 306 | 6.0 | 9.0 | 0.00 | 0.00 | 0.00 | 69 | 1017.8 |
| 20260506020402 | 67 | 121 | 1.0 | 4.0 | 0.00 | 0.00 | 0.00 | 69 | 1017.8 |
| 20260506015859 | 67 | 268 | 2.0 | 4.0 | 0.00 | 0.00 | 0.00 | 69 | 1017.9 |
| 20260506015356 | 67 | 76 | 3.0 | 4.0 | 0.00 | 0.00 | 0.00 | 68 | 1017.8 |
| 20260506014853 | 67 | 195 | 5.0 | 7.0 | 0.00 | 0.00 | 0.00 | 68 | 1017.8 |
| 20260506014350 | 68 | 217 | 3.0 | 6.0 | 0.00 | 0.00 | 0.00 | 68 | 1017.5 |
| 20260506013846 | 68 | 298 | 2.0 | 8.0 | 0.00 | 0.00 | 0.00 | 68 | 1017.5 |
| 20260506013344 | 68 | 304 | 1.0 | 4.0 | 0.00 | 0.00 | 0.00 | 67 | 1017.4 |
| 20260506012840 | 68 | 117 | 5.0 | 7.0 | 0.00 | 0.00 | 0.00 | 67 | 1017.4 |
| 20260506012337 | 68 | 288 | 1.0 | 3.0 | 0.00 | 0.00 | 0.00 | 67 | 1017.4 |
| 20260506011835 | 68 | 279 | 1.0 | 8.0 | 0.00 | 0.00 | 0.00 | 67 | 1017.2 |
| 20260506011331 | 68 | 26 | 2.0 | 3.0 | 0.00 | 0.00 | 0.00 | 67 | 1017.4 |
| 20260506010829 | 69 | 30 | 2.0 | 3.0 | 0.00 | 0.00 | 0.00 | 66 | 1017.1 |
| 20260506010326 | 69 | 9 | 3.0 | 6.0 | 0.00 | 0.00 | 0.00 | 66 | 1017.1 |
| 20260506005823 | 69 | 350 | 3.0 | 3.0 | 0.00 | 0.00 | 0.00 | 66 | 1017.3 |
| 20260506005320 | 69 | 321 | 2.0 | 6.0 | 0.00 | 0.00 | 0.00 | 66 | 1017.2 |
| 20260506004816 | 70 | 173 | 1.0 | 4.0 | 0.00 | 0.00 | 0.00 | 65 | 1016.9 |
| 20260506004314 | 70 | 129 | 3.0 | 4.0 | 0.00 | 0.00 | 0.00 | 64 | 1017.1 |
| 20260506003809 | 70 | 56 | 2.0 | 2.0 | 0.00 | 0.00 | 0.00 | 64 | 1016.8 |
| 20260506003306 | 70 | 102 | 2.0 | 6.0 | 0.00 | 0.00 | 0.00 | 63 | 1016.7 |
| 20260506002802 | 71 | 83 | 4.0 | 7.0 | 0.00 | 0.00 | 0.00 | 63 | 1016.8 |
| 20260506002259 | 71 | 298 | 2.0 | 3.0 | 0.00 | 0.00 | 0.00 | 62 | 1016.5 |
| 20260506001754 | 71 | 109 | 3.0 | 7.0 | 0.00 | 0.00 | 0.00 | 61 | 1016.7 |
| 20260506001252 | 72 | 63 | 2.0 | 6.0 | 0.00 | 0.00 | 0.00 | 61 | 1016.5 |
| 20260506000749 | 72 | 93 | 6.0 | 15.0 | 0.00 | 0.00 | 0.00 | 60 | 1016.5 |
| 20260506000247 | 72 | 256 | 4.0 | 4.0 | 0.00 | 0.00 | 0.00 | 60 | 1016.5 |
| 20260505235743 | 73 | 211 | 6.0 | 8.0 | 0.00 | 0.00 | 0.00 | 59 | 1016.5 |
| 20260505235241 | 73 | 285 | 2.0 | 13.0 | 0.00 | 0.00 | 0.00 | 59 | 1016.5 |
| 20260505234737 | 73 | 59 | 2.0 | 6.0 | 0.00 | 0.00 | 0.00 | 58 | 1016.4 |
| 20260505234235 | 73 | 195 | 5.0 | 7.0 | 0.00 | 0.00 | 0.00 | 57 | 1016.3 |
| 20260505233731 | 74 | 85 | 8.0 | 11.0 | 0.00 | 0.00 | 0.00 | 57 | 1016.4 |
| 20260505233230 | 74 | 285 | 2.0 | 3.0 | 0.00 | 0.00 | 0.00 | 56 | 1016.3 |
| 20260505232726 | 75 | 316 | 2.0 | 3.0 | 0.00 | 0.00 | 0.00 | 54 | 1016.4 |
| 20260505232224 | 75 | 95 | 3.0 | 6.0 | 0.00 | 0.00 | 0.00 | 49 | 1016.3 |
| 20260505231720 | 75 | 85 | 2.0 | 3.0 | 0.00 | 0.00 | 0.00 | 47 | 1016.1 |
| 20260505231220 | 76 | 204 | 2.0 | 4.0 | 0.00 | 0.00 | 0.00 | 48 | 1016.1 |
| 20260505230717 | 76 | 265 | 1.0 | 7.0 | 0.00 | 0.00 | 0.00 | 48 | 1016.2 |
| 20260505230214 | 76 | 199 | 3.0 | 6.0 | 0.00 | 0.00 | 0.00 | 48 | 1016.1 |
| 20260505225710 | 77 | 205 | 2.0 | 3.0 | 0.00 | 0.00 | 0.00 | 48 | 1016.3 |
| 20260505225207 | 77 | 80 | 3.0 | 4.0 | 0.00 | 0.00 | 0.00 | 47 | 1016.3 |
| 20260505224702 | 77 | 49 | 2.0 | 9.0 | 0.00 | 0.00 | 0.00 | 46 | 1016.2 |
| 20260505224201 | 78 | 226 | 4.0 | 6.0 | 0.00 | 0.00 | 0.00 | 46 | 1016.1 |
| 20260505223658 | 79 | 237 | 3.0 | 7.0 | 0.00 | 0.00 | 0.00 | 45 | 1016.2 |
| 20260505223153 | 78 | 263 | 1.0 | 3.0 | 0.00 | 0.00 | 0.00 | 45 | 1016.2 |
| 20260505222650 | 78 | 329 | 4.0 | 8.0 | 0.00 | 0.00 | 0.00 | 45 | 1016.4 |
| 20260505222146 | 78 | 288 | 3.0 | 7.0 | 0.00 | 0.00 | 0.00 | 45 | 1016.4 |
| 20260505221643 | 78 | 311 | 2.0 | 9.0 | 0.00 | 0.00 | 0.00 | 45 | 1016.2 |
| 20260505221140 | 79 | 266 | 4.0 | 9.0 | 0.00 | 0.00 | 0.00 | 44 | 1016.3 |
| 20260505220637 | 79 | 338 | 2.0 | 4.0 | 0.00 | 0.00 | 0.00 | 44 | 1016.3 |
| 20260505220135 | 79 | 65 | 2.0 | 3.0 | 0.00 | 0.00 | 0.00 | 44 | 1016.2 |
| 20260505215632 | 79 | 319 | 1.0 | 4.0 | 0.00 | 0.00 | 0.00 | 44 | 1015.9 |
| 20260505215130 | 79 | 340 | 5.0 | 8.0 | 0.00 | 0.00 | 0.00 | 44 | 1015.9 |
| 20260505214628 | 79 | 65 | 7.0 | 9.0 | 0.00 | 0.00 | 0.00 | 43 | 1016.0 |
| 20260505214125 | 79 | 285 | 3.0 | 4.0 | 0.00 | 0.00 | 0.00 | 44 | 1016.2 |
| 20260505213623 | 80 | 351 | 5.0 | 8.0 | 0.00 | 0.00 | 0.00 | 43 | 1016.2 |
| 20260505213119 | 80 | 172 | 3.0 | 7.0 | 0.00 | 0.00 | 0.00 | 42 | 1016.3 |
| 20260505212615 | 80 | 230 | 2.0 | 4.0 | 0.00 | 0.00 | 0.00 | 42 | 1016.2 |
| 20260505212113 | 80 | 234 | 2.0 | 3.0 | 0.00 | 0.00 | 0.00 | 42 | 1016.5 |
| 20260505211609 | 80 | 207 | 1.0 | 4.0 | 0.00 | 0.00 | 0.00 | 41 | 1016.3 |
| 20260505211107 | 81 | 47 | 3.0 | 8.0 | 0.00 | 0.00 | 0.00 | 41 | 1016.3 |
| 20260505210603 | 82 | 26 | 3.0 | 6.0 | 0.00 | 0.00 | 0.00 | 41 | 1016.2 |
| 20260505210100 | 81 | 99 | 5.0 | 9.0 | 0.00 | 0.00 | 0.00 | 42 | 1016.2 |
| 20260505205558 | 82 | 278 | 2.0 | 4.0 | 0.00 | 0.00 | 0.00 | 41 | 1016.2 |
| 20260505205055 | 83 | 331 | 4.0 | 8.0 | 0.00 | 0.00 | 0.00 | 38 | 1016.2 |
| 20260505204552 | 82 | 310 | 2.0 | 7.0 | 0.00 | 0.00 | 0.00 | 40 | 1016.1 |
| 20260505204050 | 82 | 68 | 3.0 | 11.0 | 0.00 | 0.00 | 0.00 | 40 | 1016.0 |
| 20260505203546 | 81 | 246 | 1.0 | 8.0 | 0.00 | 0.00 | 0.00 | 40 | 1016.3 |
| 20260505203043 | 81 | 57 | 4.0 | 9.0 | 0.00 | 0.00 | 0.00 | 41 | 1016.1 |
| 20260505202539 | 81 | 244 | 3.0 | 10.0 | 0.00 | 0.00 | 0.00 | 41 | 1016.1 |
| 20260505202035 | 82 | 106 | 2.0 | 7.0 | 0.00 | 0.00 | 0.00 | 40 | 1016.2 |
| 20260505201532 | 82 | 109 | 8.0 | 10.0 | 0.00 | 0.00 | 0.00 | 39 | 1016.4 |
| 20260505201030 | 81 | 263 | 1.0 | 4.0 | 0.00 | 0.00 | 0.00 | 41 | 1016.6 |
| 20260505200528 | 81 | 98 | 2.0 | 4.0 | 0.00 | 0.00 | 0.00 | 40 | 1016.7 |
| 20260505200024 | 81 | 318 | 1.0 | 2.0 | 0.00 | 0.00 | 0.00 | 41 | 1016.7 |
| 20260505195520 | 82 | 44 | 2.0 | 11.0 | 0.00 | 0.00 | 0.00 | 42 | 1016.6 |
| 20260505195018 | 82 | 234 | 3.0 | 7.0 | 0.00 | 0.00 | 0.00 | 41 | 1016.5 |
| 20260505194515 | 82 | 323 | 3.0 | 7.0 | 0.00 | 0.00 | 0.00 | 40 | 1016.6 |
| 20260505194010 | 82 | 291 | 1.0 | 7.0 | 0.00 | 0.00 | 0.00 | 42 | 1017.2 |
| 20260505193508 | 82 | 192 | 3.0 | 7.0 | 0.00 | 0.00 | 0.00 | 39 | 1017.1 |
| 20260505193005 | 82 | 101 | 2.0 | 6.0 | 0.00 | 0.00 | 0.00 | 39 | 1017.2 |
| 20260505192503 | 82 | 240 | 4.0 | 7.0 | 0.00 | 0.00 | 0.00 | 39 | 1017.1 |
| 20260505192000 | 81 | 277 | 2.0 | 7.0 | 0.00 | 0.00 | 0.00 | 39 | 1017.5 |
| 20260505191459 | 81 | 229 | 3.0 | 8.0 | 0.00 | 0.00 | 0.00 | 40 | 1017.5 |
| 20260505190956 | 81 | 208 | 2.0 | 8.0 | 0.00 | 0.00 | 0.00 | 40 | 1017.5 |
| 20260505190450 | 80 | 197 | 3.0 | 3.0 | 0.00 | 0.00 | 0.00 | 41 | 1017.5 |
| 20260505185946 | 81 | 121 | 4.0 | 4.0 | 0.00 | 0.00 | 0.00 | 42 | 1017.7 |
| 20260505185444 | 81 | 92 | 3.0 | 9.0 | 0.00 | 0.00 | 0.00 | 40 | 1017.8 |
| 20260505184940 | 81 | 296 | 4.0 | 7.0 | 0.00 | 0.00 | 0.00 | 41 | 1017.7 |
| 20260505184437 | 82 | 237 | 3.0 | 7.0 | 0.00 | 0.00 | 0.00 | 42 | 1017.9 |
| 20260505183933 | 81 | 105 | 6.0 | 9.0 | 0.00 | 0.00 | 0.00 | 40 | 1018.0 |
| 20260505183430 | 82 | 102 | 2.0 | 8.0 | 0.00 | 0.00 | 0.00 | 41 | 1018.0 |
| 20260505182927 | 82 | 284 | 2.0 | 10.0 | 0.00 | 0.00 | 0.00 | 41 | 1018.1 |
| 20260505182424 | 82 | 256 | 2.0 | 4.0 | 0.00 | 0.00 | 0.00 | 38 | 1018.0 |
| 20260505181920 | 83 | 261 | 2.0 | 4.0 | 0.00 | 0.00 | 0.00 | 38 | 1018.1 |
| 20260505181418 | 81 | 288 | 2.0 | 2.0 | 0.00 | 0.00 | 0.00 | 41 | 1018.1 |
| 20260505180914 | 81 | 120 | 4.0 | 13.0 | 0.00 | 0.00 | 0.00 | 41 | 1018.4 |
| 20260505180411 | 82 | 287 | 2.0 | 4.0 | 0.00 | 0.00 | 0.00 | 40 | 1018.2 |
| 20260505175908 | 82 | 86 | 2.0 | 3.0 | 0.00 | 0.00 | 0.00 | 40 | 1018.1 |
| 20260505175404 | 82 | 342 | 3.0 | 4.0 | 0.00 | 0.00 | 0.00 | 40 | 1018.1 |
| 20260505174900 | 82 | 152 | 2.0 | 3.0 | 0.00 | 0.00 | 0.00 | 39 | 1018.2 |
| 20260505174358 | 82 | 207 | 4.0 | 7.0 | 0.00 | 0.00 | 0.00 | 39 | 1018.3 |
| 20260505173854 | 81 | 83 | 2.0 | 6.0 | 0.00 | 0.00 | 0.00 | 42 | 1018.0 |
| 20260505173351 | 81 | 79 | 2.0 | 8.0 | 0.00 | 0.00 | 0.00 | 42 | 1018.3 |
| 20260505172848 | 80 | 148 | 1.0 | 3.0 | 0.00 | 0.00 | 0.00 | 43 | 1018.6 |
| 20260505172345 | 81 | 241 | 0.0 | 4.0 | 0.00 | 0.00 | 0.00 | 43 | 1018.3 |
| 20260505171845 | 81 | 243 | 2.0 | 8.0 | 0.00 | 0.00 | 0.00 | 43 | 1018.3 |
| 20260505171342 | 80 | 237 | 2.0 | 10.0 | 0.00 | 0.00 | 0.00 | 42 | 1018.4 |
| 20260505170838 | 79 | 37 | 4.0 | 6.0 | 0.00 | 0.00 | 0.00 | 46 | 1018.4 |
| 20260505170335 | 81 | 102 | 5.0 | 9.0 | 0.00 | 0.00 | 0.00 | 43 | 1018.5 |
| 20260505165831 | 81 | 253 | 2.0 | 7.0 | 0.00 | 0.00 | 0.00 | 44 | 1018.5 |
| 20260505165326 | 81 | 158 | 6.0 | 7.0 | 0.00 | 0.00 | 0.00 | 43 | 1018.3 |
| 20260505164822 | 80 | 269 | 2.0 | 4.0 | 0.00 | 0.00 | 0.00 | 45 | 1018.5 |
| 20260505164319 | 80 | 99 | 2.0 | 4.0 | 0.00 | 0.00 | 0.00 | 45 | 1018.5 |
| 20260505163818 | 80 | 293 | 2.0 | 4.0 | 0.00 | 0.00 | 0.00 | 43 | 1018.8 |
| 20260505163316 | 80 | 275 | 1.0 | 7.0 | 0.00 | 0.00 | 0.00 | 45 | 1018.6 |
| 20260505162814 | 80 | 269 | 3.0 | 4.0 | 0.00 | 0.00 | 0.00 | 46 | 1018.8 |
| 20260505162310 | 80 | 69 | 2.0 | 4.0 | 0.00 | 0.00 | 0.00 | 44 | 1018.6 |
| 20260505161807 | 78 | 61 | 1.0 | 3.0 | 0.00 | 0.00 | 0.00 | 46 | 1019.1 |
| 20260505161304 | 79 | 266 | 4.0 | 6.0 | 0.00 | 0.00 | 0.00 | 43 | 1019.1 |
| 20260505160802 | 78 | 304 | 4.0 | 6.0 | 0.00 | 0.00 | 0.00 | 44 | 1019.3 |
| 20260505160259 | 78 | 275 | 2.0 | 2.0 | 0.00 | 0.00 | 0.00 | 47 | 1019.3 |
| 20260505153238 | 77 | 113 | 1.0 | 4.0 | 0.00 | 0.00 | 0.00 | 48 | 1019.2 |
| 20260505152736 | 77 | 54 | 2.0 | 7.0 | 0.00 | 0.00 | 0.00 | 48 | 1019.2 |
| 20260505152232 | 78 | 289 | 9.0 | 10.0 | 0.00 | 0.00 | 0.00 | 45 | 1019.2 |
| 20260505151732 | 78 | 86 | 1.0 | 2.0 | 0.00 | 0.00 | 0.00 | 48 | 1019.3 |
| 20260505151230 | 77 | 280 | 1.0 | 2.0 | 0.00 | 0.00 | 0.00 | 50 | 1019.1 |
| 20260505150726 | 76 | 283 | 2.0 | 4.0 | 0.00 | 0.00 | 0.00 | 52 | 1019.2 |
| 20260505150223 | 76 | 27 | 2.0 | 7.0 | 0.00 | 0.00 | 0.00 | 52 | 1019.4 |
| 20260505140651 | 73 | 42 | 2.0 | 3.0 | 0.00 | 0.00 | 0.00 | 55 | 1019.2 |
| 20260505140148 | 73 | 274 | 2.0 | 6.0 | 0.00 | 0.00 | 0.00 | 57 | 1019.3 |
| 20260505130112 | 69 | 182 | 2.0 | 3.0 | 0.00 | 0.00 | 0.00 | 62 | 1019.5 |
| 20260505124601 | 68 | 242 | 1.0 | 3.0 | 0.00 | 0.00 | 0.00 | 65 | 1019.5 |
| 20260505124057 | 67 | 255 | 3.0 | 3.0 | 0.00 | 0.00 | 0.00 | 65 | 1019.6 |
| 20260505123554 | 66 | 241 | 1.0 | 2.0 | 0.00 | 0.00 | 0.00 | 67 | 1019.7 |
| 20260505123050 | 66 | 236 | 0.0 | 2.0 | 0.00 | 0.00 | 0.00 | 67 | 1019.6 |
| 20260505122547 | 66 | 280 | 1.0 | 6.0 | 0.00 | 0.00 | 0.00 | 68 | 1019.6 |
| 20260505122044 | 65 | 86 | 2.0 | 3.0 | 0.00 | 0.00 | 0.00 | 69 | 1019.5 |
| 20260505121541 | 65 | 254 | 2.0 | 2.0 | 0.00 | 0.00 | 0.00 | 69 | 1019.3 |
| 20260505121038 | 65 | 232 | 0.0 | 2.0 | 0.00 | 0.00 | 0.00 | 70 | 1019.3 |
| 20260505120534 | 64 | 228 | 1.0 | 1.0 | 0.00 | 0.00 | 0.00 | 71 | 1019.2 |
| 20260505120030 | 62 | 269 | 0.0 | 2.0 | 0.00 | 0.00 | 0.00 | 75 | 1019.2 |
| 20260505115524 | 61 | 283 | 1.0 | 1.0 | 0.00 | 0.00 | 0.00 | 78 | 1019.3 |
| 20260505115022 | 60 | 271 | 1.0 | 1.0 | 0.00 | 0.00 | 0.00 | 79 | 1019.2 |
| 20260505114519 | 59 | 223 | 1.0 | 2.0 | 0.00 | 0.00 | 0.00 | 81 | 1019.1 |
| 20260505114015 | 58 | 201 | 1.0 | 2.0 | 0.00 | 0.00 | 0.00 | 82 | 1019.1 |
| 20260505113512 | 58 | 211 | 1.0 | 1.0 | 0.00 | 0.00 | 0.00 | 83 | 1019.1 |
| 20260505113009 | 57 | 218 | 0.0 | 1.0 | 0.00 | 0.00 | 0.00 | 85 | 1019.0 |
| 20260505112505 | 56 | 204 | 1.0 | 1.0 | 0.00 | 0.00 | 0.00 | 88 | 1019.1 |
| 20260505112003 | 55 | 266 | 0.0 | 0.0 | 0.00 | 0.00 | 0.00 | 90 | 1018.9 |
| 20260505111502 | 54 | 234 | 0.0 | 0.0 | 0.00 | 0.00 | 0.00 | 91 | 1018.8 |
| 20260505110958 | 54 | 234 | 0.0 | 1.0 | 0.00 | 0.00 | 0.00 | 92 | 1018.7 |
| 20260505110455 | 53 | 234 | 0.0 | 0.0 | 0.00 | 0.00 | 0.00 | 92 | 1018.7 |
| 20260505101927 | 53 | 234 | 0.0 | 0.0 | 0.00 | 0.00 | 0.00 | 90 | 1018.4 |
| 20260505101426 | 53 | 234 | 0.0 | 0.0 | 0.00 | 0.00 | 0.00 | 89 | 1018.4 |
| 20260505100922 | 53 | 234 | 0.0 | 0.0 | 0.00 | 0.00 | 0.00 | 88 | 1018.2 |
| 20260505100420 | 54 | 234 | 0.0 | 0.0 | 0.00 | 0.00 | 0.00 | 88 | 1018.1 |
| 20260505095915 | 54 | 234 | 0.0 | 0.0 | 0.00 | 0.00 | 0.00 | 89 | 1017.9 |
| 20260505095413 | 54 | 234 | 0.0 | 0.0 | 0.00 | 0.00 | 0.00 | 88 | 1018.0 |
| 20260505094909 | 54 | 234 | 0.0 | 0.0 | 0.00 | 0.00 | 0.00 | 88 | 1017.9 |
| 20260505094406 | 54 | 234 | 0.0 | 0.0 | 0.00 | 0.00 | 0.00 | 87 | 1017.9 |
| 20260505093901 | 54 | 234 | 0.0 | 0.0 | 0.00 | 0.00 | 0.00 | 86 | 1017.9 |
| 20260505093359 | 54 | 234 | 0.0 | 0.0 | 0.00 | 0.00 | 0.00 | 86 | 1017.9 |
| 20260505092856 | 55 | 234 | 0.0 | 0.0 | 0.00 | 0.00 | 0.00 | 86 | 1017.8 |
| 20260505092354 | 55 | 234 | 0.0 | 0.0 | 0.00 | 0.00 | 0.00 | 85 | 1017.8 |
| 20260505091851 | 55 | 234 | 0.0 | 0.0 | 0.00 | 0.00 | 0.00 | 84 | 1017.7 |
| 20260505091349 | 55 | 234 | 0.0 | 0.0 | 0.00 | 0.00 | 0.00 | 83 | 1017.6 |
| 20260505090847 | 56 | 234 | 0.0 | 0.0 | 0.00 | 0.00 | 0.00 | 83 | 1017.6 |
| 20260505090345 | 56 | 234 | 0.0 | 0.0 | 0.00 | 0.00 | 0.00 | 82 | 1017.8 |
| 20260505085841 | 56 | 234 | 0.0 | 0.0 | 0.00 | 0.00 | 0.00 | 82 | 1017.6 |
| 20260505085340 | 56 | 234 | 0.0 | 0.0 | 0.00 | 0.00 | 0.00 | 82 | 1017.5 |
| 20260505084837 | 56 | 234 | 0.0 | 0.0 | 0.00 | 0.00 | 0.00 | 80 | 1017.6 |
| 20260505084335 | 56 | 234 | 0.0 | 0.0 | 0.00 | 0.00 | 0.00 | 80 | 1017.6 |
| 20260505083832 | 57 | 234 | 0.0 | 0.0 | 0.00 | 0.00 | 0.00 | 79 | 1017.7 |
| 20260505083330 | 57 | 234 | 0.0 | 1.0 | 0.00 | 0.00 | 0.00 | 78 | 1017.5 |
| 20260505082826 | 57 | 235 | 0.0 | 0.0 | 0.00 | 0.00 | 0.00 | 78 | 1017.6 |
| 20260505082322 | 57 | 235 | 0.0 | 0.0 | 0.00 | 0.00 | 0.00 | 77 | 1017.4 |
| 20260505081819 | 58 | 235 | 0.0 | 0.0 | 0.00 | 0.00 | 0.00 | 76 | 1017.4 |
| 20260505081316 | 58 | 234 | 0.0 | 0.0 | 0.00 | 0.00 | 0.00 | 76 | 1017.2 |
| 20260505080812 | 58 | 191 | 0.0 | 0.0 | 0.00 | 0.00 | 0.00 | 75 | 1017.2 |
| 20260505080308 | 59 | 191 | 0.0 | 0.0 | 0.00 | 0.00 | 0.00 | 74 | 1017.4 |
| 20260505075804 | 59 | 93 | 0.0 | 0.0 | 0.00 | 0.00 | 0.00 | 74 | 1017.3 |
| 20260505075304 | 59 | 53 | 0.0 | 0.0 | 0.00 | 0.00 | 0.00 | 73 | 1017.3 |
| 20260505074758 | 59 | 182 | 0.0 | 1.0 | 0.00 | 0.00 | 0.00 | 73 | 1017.4 |
| 20260505074255 | 59 | 174 | 0.0 | 1.0 | 0.00 | 0.00 | 0.00 | 73 | 1017.5 |
| 20260505073753 | 59 | 115 | 0.0 | 0.0 | 0.00 | 0.00 | 0.00 | 72 | 1017.3 |
| 20260505073251 | 59 | 124 | 0.0 | 0.0 | 0.00 | 0.00 | 0.00 | 72 | 1017.4 |
| 20260505072747 | 60 | 171 | 0.0 | 1.0 | 0.00 | 0.00 | 0.00 | 72 | 1017.3 |
| 20260505072243 | 60 | 199 | 2.0 | 2.0 | 0.00 | 0.00 | 0.00 | 72 | 1017.4 |
| 20260505071739 | 60 | 190 | 0.0 | 2.0 | 0.00 | 0.00 | 0.00 | 71 | 1017.3 |
| 20260505071236 | 60 | 99 | 1.0 | 1.0 | 0.00 | 0.00 | 0.00 | 70 | 1017.1 |
| 20260505070734 | 60 | 78 | 1.0 | 1.0 | 0.00 | 0.00 | 0.00 | 70 | 1017.2 |
| 20260505070230 | 60 | 67 | 0.0 | 2.0 | 0.00 | 0.00 | 0.00 | 70 | 1017.0 |
| 20260505065726 | 60 | 357 | 1.0 | 1.0 | 0.00 | 0.00 | 0.00 | 70 | 1017.2 |
| 20260505065223 | 60 | 236 | 0.0 | 4.0 | 0.00 | 0.00 | 0.00 | 70 | 1017.2 |
| 20260505064720 | 60 | 200 | 0.0 | 1.0 | 0.00 | 0.00 | 0.00 | 70 | 1017.2 |
| 20260505064218 | 60 | 283 | 0.0 | 1.0 | 0.00 | 0.00 | 0.00 | 70 | 1017.1 |
| 20260505063715 | 60 | 276 | 0.0 | 1.0 | 0.00 | 0.00 | 0.00 | 70 | 1017.1 |
| 20260505063211 | 60 | 224 | 0.0 | 0.0 | 0.00 | 0.00 | 0.00 | 70 | 1017.4 |
| 20260505062707 | 60 | 199 | 1.0 | 1.0 | 0.00 | 0.00 | 0.00 | 70 | 1017.3 |
| 20260505062206 | 60 | 198 | 0.0 | 1.0 | 0.00 | 0.00 | 0.00 | 70 | 1017.4 |
| 20260505061702 | 60 | 212 | 2.0 | 2.0 | 0.00 | 0.00 | 0.00 | 69 | 1017.6 |
| 20260505061200 | 60 | 308 | 1.0 | 1.0 | 0.00 | 0.00 | 0.00 | 69 | 1017.4 |
| 20260505060657 | 61 | 199 | 1.0 | 1.0 | 0.00 | 0.00 | 0.00 | 69 | 1017.4 |
| 20260505060154 | 61 | 192 | 0.0 | 1.0 | 0.00 | 0.00 | 0.00 | 69 | 1017.4 |
| 20260505055649 | 61 | 79 | 1.0 | 2.0 | 0.00 | 0.00 | 0.00 | 69 | 1017.6 |
| 20260505055146 | 61 | 134 | 1.0 | 3.0 | 0.00 | 0.00 | 0.00 | 69 | 1017.6 |
| 20260505054643 | 61 | 210 | 0.0 | 1.0 | 0.00 | 0.00 | 0.00 | 69 | 1017.6 |
| 20260505054141 | 61 | 185 | 0.0 | 1.0 | 0.00 | 0.00 | 0.00 | 69 | 1017.7 |
| 20260505053639 | 61 | 221 | 1.0 | 4.0 | 0.00 | 0.00 | 0.00 | 69 | 1017.6 |
| 20260505053135 | 61 | 212 | 0.0 | 2.0 | 0.00 | 0.00 | 0.00 | 68 | 1017.6 |
| 20260505052632 | 61 | 210 | 0.0 | 0.0 | 0.00 | 0.00 | 0.00 | 68 | 1017.5 |
| 20260505052129 | 61 | 220 | 0.0 | 2.0 | 0.00 | 0.00 | 0.00 | 68 | 1017.5 |
| 20260505051626 | 61 | 146 | 1.0 | 2.0 | 0.00 | 0.00 | 0.00 | 68 | 1017.8 |
| 20260505051124 | 61 | 280 | 0.0 | 2.0 | 0.00 | 0.00 | 0.00 | 68 | 1017.8 |
| 20260505050621 | 62 | 223 | 0.0 | 2.0 | 0.00 | 0.00 | 0.00 | 68 | 1017.8 |
| 20260505050120 | 62 | 298 | 1.0 | 1.0 | 0.00 | 0.00 | 0.00 | 67 | 1017.8 |